Location: Kalberh�ni
(46.4610°N, 7.2453°E)
Time: 04:51:15
(UTC+00:00)

Cosmos 1802 Rocket - Pass Details

Date: 25 October 2021
Orbit: 955 x 1010 km, 82.9° (Epoch: 05 December)

Event Time Altitude Azimuth Distance (km) Brightness Sun altitude
Rises 05:22:03 0° 356° (N) 3,679 6.9 -7.6°
Reaches altitude 10° 05:24:45 10° 4° (N) 2,736 6.3 -7.2°
Maximum altitude 05:30:36 40° 73° (ENE) 1,421 5.5 -6.2°
Drops below altitude 10° 05:36:30 10° 142° (SE) 2,755 7.2 -5.2°
Sets 05:39:12 0° 150° (SSE) 3,708 7.8 -4.7°
